Home > Weather > Fairfax > Past weeks

Flag for USA Weather for the Past 2 Weeks in Fairfax, Virginia, USA

Now
47 °F

Fog.


Feels Like: 43 °F
Forecast: 49 / 57 °F
Wind: 7 mph from Northeast

Location: Washington-Dulles International Airport

Current Time: Apr 29, 2016 at 2:36:11 AM

Latest Report: Apr 29, 2016 at 1:52 AM


Visibility: 2 mi

Pressure: 30.01 "Hg

Humidity: 93%

Dew Point: 45 °F

Location of FairfaxLocation

Historic Weather in Fairfax — Graph

°F

Fairfax Temperature Yesterday

Maximum temperature yesterday: 54 °F (at 12:52 AM)
Minimum temperature yesterday: 47 °F (at 10:52 PM)
Average temperature yesterday: 51 °F

High & Low Weather Summary for the Past Weeks

 TemperatureHumidityPressure
High84 °F (Apr 26, 2:52 PM)97% (Apr 23, 1:52 AM)30.47 "Hg (Apr 23, 1:52 AM)
Low31 °F (Apr 14, 6:52 AM)17% (Apr 20, 2:52 PM)29.69 "Hg (Apr 26, 3:52 PM)
Average59 °F56%30.10 "Hg
* Reported Apr 13 11:52 PM — Apr 28 11:52 PM, Fairfax, Weather by CustomWeather, © 2016

Note: Actual official high and low records may vary slightly from our data, if they occured in-between our weather recording intervals... More about our weather records

Advertising

Fairfax Weather History for the Previous 24 Hours

Scroll right to see more
 ConditionsComfort  
Time TempWeatherWind HumidityBarometerVisibility
11:52 PM
Thu, Apr 28
47 °FOvercast.5 mph90%30.02 "Hg10 mi
10:52 PM47 °FLow clouds.6 mph90%30.02 "Hg7 mi
9:52 PM48 °FLow clouds.9 mph93%30.01 "Hg7 mi
8:52 PM48 °FRain. Fog.12 mph93%30.00 "Hg2 mi
7:52 PM49 °FDrizzle. Fog.6 mph93%30.00 "Hg2 mi
6:52 PM50 °FDrizzle. Fog.9 mph93%29.98 "Hg2 mi
5:52 PM51 °FDrizzle. Fog.12 mph92%29.97 "Hg2 mi
4:52 PM52 °FDrizzle. Fog.8 mph97%29.96 "Hg1 mi
3:52 PM52 °FDrizzle. Fog.5 mph93%29.97 "Hg1 mi
2:52 PM51 °FDrizzle. Fog.7 mph92%29.98 "Hg2 mi
1:52 PM51 °FFog.9 mph89%29.98 "Hg4 mi
12:59 PM51 °FOvercast.9 mph89%30.00 "Hg7 mi
11:52 AM52 °FLight rain. Fog.12 mph93%29.98 "Hg2 mi
11:04 AM52 °FLight rain. Fog.8 mph93%29.99 "Hg2 mi
10:52 AM52 °FRain. Fog.8 mph93%29.99 "Hg1 mi
9:52 AM53 °FLight rain. Fog.7 mph89%29.98 "Hg2 mi
8:52 AM53 °FLight rain. Fog.6 mph93%29.98 "Hg2 mi
7:52 AM53 °FLight rain. Fog.6 mph89%29.97 "Hg1 mi
7:03 AM53 °FLight rain. Fog.7 mph89%29.96 "Hg1 mi
6:52 AM53 °FFog.5 mph89%29.96 "Hg1 mi
5:52 AM53 °FLight rain. Fog.7 mph89%29.94 "Hg5 mi
4:52 AM53 °FMostly cloudy.6 mph89%29.93 "Hg8 mi
3:52 AM53 °FMostly cloudy.5 mph89%29.92 "Hg8 mi
2:52 AM54 °FLow clouds.No wind86%29.93 "Hg9 mi
Weather by CustomWeather, © 2016

See weather overviewHow to use our weather pages